This is the latest recevied weather packets stored in our database for station/object N5SRF. If no packets are shown the sender has not sent any weather packets the latest 10 day(s).
| Time | Temp. | Humidity | Pressure | Rain* | Wind** | Luminosity | Snow |
|---|---|---|---|---|---|---|---|
| 1777899799 | 18.33° C | 77% | 1020 hPa | 0 mm | - | 88 W/m² | - |
| 1777899497 | 17.78° C | 77% | 1020.1 hPa | 0 mm | - | 111 W/m² | - |
| 1777899194 | 17.78° C | 78% | 1020.2 hPa | 0 mm | - | 114 W/m² | - |
| 1777898892 | 17.78° C | 78% | 1020 hPa | 0 mm | - | 84 W/m² | - |
| 1777898589 | 17.22° C | 79% | 1020 hPa | 0 mm | - | 97 W/m² | - |
| 1777898286 | 16.67° C | 79% | 1020.4 hPa | 0 mm | - | 67 W/m² | - |
| 1777897983 | 17.22° C | 78% | 1020.1 hPa | 0 mm | - | 47 W/m² | - |
| 1777897679 | 17.22° C | 78% | 1020.1 hPa | 0 mm | - | 38 W/m² | - |
| 1777897375 | 17.22° C | 77% | 1019.7 hPa | 0 mm | - | 28 W/m² | - |
| 1777897071 | 17.22° C | 78% | 1019.9 hPa | 0 mm | - | 36 W/m² | - |
| 1777896768 | 17.22° C | 78% | 1019.7 hPa | 0 mm | - | 37 W/m² | - |
| 1777896465 | 16.67° C | 79% | 1019.9 hPa | 0 mm | - | 34 W/m² | - |
| 1777896163 | 16.67° C | 79% | 1020 hPa | 0 mm | - | 29 W/m² | - |
| 1777895861 | 16.11° C | 79% | 1019.6 hPa | 0 mm | - | 23 W/m² | - |
| 1777895558 | 16.11° C | 80% | 1019.7 hPa | 0 mm | - | 17 W/m² | - |
| 1777895255 | 15.56° C | 81% | 1019.5 hPa | 0 mm | - | 13 W/m² | - |
| 1777894953 | 15.56° C | 81% | 1019.4 hPa | 0 mm | - | 9 W/m² | - |
| 1777894650 | 15.56° C | 81% | 1019.6 hPa | 0 mm | - | 5 W/m² | - |
| 1777894347 | 15° C | 82% | 1019.6 hPa | 0 mm | - | 2 W/m² | - |
| 1777894044 | 15° C | 82% | 1019.2 hPa | 0 mm | - | 1 W/m² | - |
| 1777893740 | 15° C | 82% | 1019.6 hPa | 0 mm | - | 0 W/m² | - |
| 1777893437 | 15° C | 81% | 1019.7 hPa | 0 mm | - | 0 W/m² | - |
| 1777893134 | 15° C | 81% | 1019.5 hPa | 0 mm | - | 0 W/m² | - |
| 1777892830 | 15° C | 82% | 1019.5 hPa | 0 mm | - | 0 W/m² | - |
| 1777892527 | 15° C | 82% | 1019.5 hPa | 0 mm | - | 0 W/m² | - |
* Rain latest hour (hover to see other rain measurements)
** Current wind speed in m/s (hover to see current wind gust speed)